TimeIST,TemperatureF,Dew PointF,Humidity,Sea Level PressureIn,VisibilityMPH,Wind Direction,Wind SpeedMPH,Gust SpeedMPH,PrecipitationIn,Events,Conditions,WindDirDegrees,DateUTC
12:00 AM,53.6,51.8,94,30.01,6.2,WNW,3.5,-,N/A,,Partly Cloudy,300,2013-06-17 23:00:00
12:30 AM,53.6,51.8,94,30.01,6.2,North,2.3,-,N/A,,Partly Cloudy,360,2013-06-17 23:30:00
1:00 AM,53,52,94,30.02,12,NW,4.5,,,,Scattered Clouds,310,2013-06-18 00:00:00
1:00 AM,51.8,51.8,100,30.01,6.2,NW,4.6,-,N/A,,Partly Cloudy,310,2013-06-18 00:00:00
1:30 AM,51.8,51.8,100,30.01,6.2,North,2.3,-,N/A,,Partly Cloudy,360,2013-06-18 00:30:00
2:00 AM,51.8,51.8,100,30.01,6.2,North,1.2,-,N/A,,Scattered Clouds,350,2013-06-18 01:00:00
2:30 AM,51.8,51.8,100,30.01,6.2,North,2.3,-,N/A,,Mostly Cloudy,10,2013-06-18 01:30:00
3:00 AM,50.0,50.0,100,30.01,6.2,WNW,2.3,-,N/A,Fog,Shallow Fog,290,2013-06-18 02:00:00
3:30 AM,51.8,50.0,94,30.01,5.0,WSW,1.2,-,N/A,Fog,Shallow Fog,240,2013-06-18 02:30:00
4:00 AM,50.0,50.0,100,30.01,3.7,ESE,1.2,-,N/A,Fog,Shallow Fog,120,2013-06-18 03:00:00
4:30 AM,50.0,48.2,94,30.01,3.1,East,1.2,-,N/A,Fog,Shallow Fog,80,2013-06-18 03:30:00
5:00 AM,50.0,48.2,94,30.01,3.1,East,1.2,-,N/A,Fog,Shallow Fog,90,2013-06-18 04:00:00
5:30 AM,50.0,50.0,100,30.01,1.9,ESE,1.2,-,N/A,Fog,Shallow Fog,120,2013-06-18 04:30:00
6:00 AM,50.0,50.0,100,29.98,0.2,West,1.2,-,N/A,Fog,Fog,260,2013-06-18 05:00:00
6:30 AM,50.0,50.0,100,29.98,0.3,West,3.5,-,N/A,Fog,Fog,280,2013-06-18 05:30:00
7:00 AM,51,51,100,30.00,0,WSW,6.7,,,Fog,Partial Fog,250,2013-06-18 06:00:00
7:00 AM,51.8,51.8,100,29.98,0.4,WSW,5.8,-,N/A,Fog,Fog,250,2013-06-18 06:00:00
7:30 AM,51.8,51.8,100,30.01,0.2,WSW,2.3,-,N/A,Fog,Fog,240,2013-06-18 06:30:00
8:00 AM,51.8,51.8,100,30.01,0.4,SSW,1.2,-,N/A,Fog,Fog,200,2013-06-18 07:00:00
8:30 AM,53.6,53.6,100,30.01,1.6,SSW,3.5,-,N/A,,Scattered Clouds,210,2013-06-18 07:30:00
9:00 AM,53.6,53.6,100,30.01,1.7,SSW,3.5,-,N/A,,Mostly Cloudy,210,2013-06-18 08:00:00
9:30 AM,55.4,55.4,100,30.01,6.2,West,9.2,-,N/A,,Mostly Cloudy,260,2013-06-18 08:30:00
10:00 AM,57.2,53.6,88,30.01,6.2,WSW,6.9,-,N/A,,Mostly Cloudy,250,2013-06-18 09:00:00
10:30 AM,59.0,55.4,88,30.01,6.2,WSW,9.2,-,N/A,,Mostly Cloudy,240,2013-06-18 09:30:00
11:00 AM,60.8,55.4,82,30.01,6.2,West,12.7,-,N/A,,Partly Cloudy,270,2013-06-18 10:00:00
11:30 AM,60.8,55.4,82,30.01,6.2,West,9.2,-,N/A,,Scattered Clouds,270,2013-06-18 10:30:00
12:00 PM,60.8,55.4,82,30.01,6.2,West,11.5,-,N/A,,Mostly Cloudy,270,2013-06-18 11:00:00
12:30 PM,62.6,55.4,77,30.01,6.2,West,9.2,-,N/A,,Scattered Clouds,280,2013-06-18 11:30:00
1:00 PM,63,54,66,30.01,25,West,11.2,,,,Partly Cloudy,260,2013-06-18 12:00:00
1:00 PM,62.6,53.6,72,30.01,6.2,West,11.5,-,N/A,,Scattered Clouds,260,2013-06-18 12:00:00
1:30 PM,62.6,51.8,68,30.01,6.2,WSW,10.4,-,N/A,,Scattered Clouds,250,2013-06-18 12:30:00
2:00 PM,64.4,51.8,64,30.01,6.2,West,8.1,-,N/A,,Scattered Clouds,260,2013-06-18 13:00:00
2:30 PM,64.4,51.8,64,30.01,6.2,West,10.4,-,N/A,,Scattered Clouds,280,2013-06-18 13:30:00
3:00 PM,64.4,51.8,64,30.01,6.2,WSW,10.4,-,N/A,,Scattered Clouds,250,2013-06-18 14:00:00
3:30 PM,64.4,51.8,64,30.01,6.2,West,15.0,-,N/A,,Scattered Clouds,280,2013-06-18 14:30:00
4:00 PM,64.4,53.6,68,30.01,6.2,West,16.1,-,N/A,,Partly Cloudy,280,2013-06-18 15:00:00
4:30 PM,62.6,55.4,77,30.01,6.2,West,16.1,-,N/A,,Partly Cloudy,270,2013-06-18 15:30:00
5:00 PM,60.8,53.6,77,30.01,6.2,West,13.8,-,N/A,,Mostly Cloudy,280,2013-06-18 16:00:00
5:30 PM,60.8,55.4,82,30.04,6.2,West,9.2,-,N/A,,Mostly Cloudy,270,2013-06-18 16:30:00
6:00 PM,60.8,55.4,82,30.04,6.2,WNW,11.5,-,N/A,,Mostly Cloudy,290,2013-06-18 17:00:00
6:30 PM,59.0,53.6,82,30.04,6.2,WNW,10.4,-,N/A,,Mostly Cloudy,290,2013-06-18 17:30:00
7:00 PM,61,53,67,30.04,25,West,8.9,,,,Mostly Cloudy,270,2013-06-18 18:00:00
7:00 PM,60.8,53.6,77,30.04,6.2,West,8.1,-,N/A,,Mostly Cloudy,270,2013-06-18 18:00:00
7:30 PM,59.0,51.8,77,30.04,6.2,WNW,10.4,-,N/A,,Mostly Cloudy,290,2013-06-18 18:30:00
8:00 PM,59.0,50.0,72,30.04,6.2,West,11.5,-,N/A,,Mostly Cloudy,280,2013-06-18 19:00:00
8:30 PM,57.2,50.0,77,30.04,6.2,WNW,11.5,-,N/A,,Mostly Cloudy,290,2013-06-18 19:30:00
9:00 PM,57.2,50.0,77,30.04,6.2,WNW,9.2,-,N/A,,Partly Cloudy,290,2013-06-18 20:00:00
9:30 PM,55.4,50.0,82,30.06,6.2,West,10.4,-,N/A,,Scattered Clouds,280,2013-06-18 20:30:00
10:00 PM,55.4,50.0,82,30.06,6.2,West,13.8,-,N/A,,Scattered Clouds,270,2013-06-18 21:00:00
10:30 PM,53.6,50.0,88,30.06,6.2,West,10.4,-,N/A,,Partly Cloudy,280,2013-06-18 21:30:00
11:00 PM,51.8,48.2,88,30.06,6.2,West,8.1,-,N/A,,Partly Cloudy,280,2013-06-18 22:00:00
11:30 PM,51.8,48.2,88,30.06,6.2,West,9.2,-,N/A,,Partly Cloudy,280,2013-06-18 22:30:00